[[{"header":{"parameterUnit":"m.s-1","parameterCategory":1,"la1":30.2991,"la2":30.254,"lo1":-89.0895,"lo2":-89.0444,"dy":0.0017,"dx":0.0017,"nx":28,"ny":28,"refTime":"2024-05-29T09:00:00:Z","depth":0,"parameterNumber":2,"parameterNumberName":"U-component_of_WINDS"},"data":[0,0,0,0,0,0,0,0,0,0,0,0,0,0,0,0,0,0,0,0,0,0,0,0,0,0,0,0,0,0,0,0,0,0,0,0,0,0,0,0,0,0,0,0,0,0,0,0,0,0,0,0,0,0,0,0,0,0,-2.2896,-2.2897,0,-2.299,-2.2991,-2.2992,-2.2996,-2.2995,-2.2994,-2.2993,-2.3089,-2.3092,-2.3096,0,0,0,0,0,0,0,0,0,0,0,0,0,-2.2719,-2.2723,-2.2895,-2.2897,-2.2898,-2.2989,-2.2991,-2.2992,-2.2996,-2.2995,-2.2993,-2.2992,-2.3088,-2.3092,-2.3096,0,0,0,0,0,0,0,0,0,0,0,0,0,-2.2803,-2.2724,-2.2895,-2.2911,-2.2913,-2.2989,-2.2991,-2.2992,-2.2996,-2.2995,-2.2993,-2.2992,-2.3086,-2.3092,-2.3097,-2.3163,0,0,-2.3113,-2.3116,0,0,0,0,0,0,0,0,-2.2798,-2.2809,-2.2907,-2.291,-2.2913,-2.2979,-2.2964,-2.305,-2.2997,-2.2965,-2.2993,-2.2991,-2.3054,-2.3062,-2.3083,-2.3168,-2.3172,-2.3114,-2.3117,-2.3119,-2.3121,0,0,0,0,0,0,0,-2.2792,-2.2805,-2.2933,-2.2909,-2.2912,-2.2913,-2.2923,-2.298,-2.3018,-2.2968,-2.2968,-2.2979,-2.3055,-2.3078,-2.3085,-2.3174,-2.3114,-2.3119,-2.3122,-2.3124,-2.3317,-2.3319,0,0,0,0,0,0,-2.2784,-2.28,-2.293,-2.2936,-2.285,-2.2918,-2.2929,-2.296,-2.3017,-2.3024,-2.298,-2.2979,-2.3069,-2.3079,-2.3089,-2.317,-2.3119,-2.3124,-2.3128,-2.3315,-2.3318,-2.332,0,0,0,0,0,0,-2.278,-2.2795,-2.2926,-2.2868,-2.2885,-2.2923,-2.2957,-2.2962,-2.2985,-2.3027,-2.3033,-2.2997,-2.3069,-2.3081,-2.3145,-2.3173,-2.3127,-2.3132,-2.3313,-2.3316,-2.3319,-2.3333,0,0,0,0,0,0,-2.2775,-2.2794,-2.2819,-2.2869,-2.2888,-2.298,-2.2959,-2.2965,-2.2995,-2.2994,-2.3044,-2.3051,-2.3068,-2.3137,-2.315,-2.318,-2.3136,-2.3311,-2.3315,-2.3318,-2.3331,-2.3336,-2.3341,0,0,0,0,0,-2.2768,-2.282,-2.2821,-2.2836,-2.2921,-2.2982,-2.2993,-2.3012,-2.2997,-2.3023,-2.305,-2.3049,-2.3168,-2.3143,-2.3158,-2.319,-2.3309,-2.3313,-2.3318,-2.3328,-2.3335,-2.3341,0,0,0,0,0,0,-2.2773,-2.2827,-2.2828,-2.2897,-2.2935,-2.2983,-2.3016,-2.3019,-2.3062,-2.306,-2.3081,-2.3093,-2.3156,-2.318,-2.3151,-2.3258,-2.3237,-2.3244,-2.324,-2.3247,-2.3252,-2.3245,-2.3141,0,0,0,0,0,-2.2782,-2.2827,-2.2872,-2.2928,-2.2947,-2.2978,-2.3006,-2.3017,-2.3057,-2.3073,-2.3105,-2.3144,-2.319,-2.322,-2.3265,-2.3334,-2.3345,-2.3364,-2.3369,-2.3373,-2.3379,-2.3418,-2.3426,-2.3334,-2.3334,-2.3334,0,0,-2.2801,-2.2836,-2.2863,-2.293,-2.2961,-2.3007,-2.2992,-2.3041,-2.3076,-2.3081,-2.3143,-2.3167,-2.3212,-2.3279,-2.331,-2.33,-2.3407,-2.3379,-2.3382,-2.3386,-2.3423,-2.3432,-2.3439,-2.3337,-2.3336,-2.3336,0,0,-2.2859,-2.289,-2.2941,-2.2972,-2.3018,-2.3039,-2.3051,-2.3098,-2.3115,-2.3177,-2.3182,-2.3223,-2.3302,-2.3334,-2.336,-2.343,-2.3431,-2.3445,-2.3473,-2.351,-2.3517,-2.3524,-2.3548,-2.3557,-2.3451,-2.3451,-2.3451,0,-2.2877,-2.2947,-2.2966,-2.3016,-2.3045,-2.3051,-2.3102,-2.3132,-2.3191,-2.3211,-2.3199,-2.3299,-2.333,-2.3404,-2.3421,-2.3442,-2.3456,-2.3439,-2.3514,-2.3521,-2.3528,-2.3551,-2.356,-2.3452,-2.3452,-2.3452,-2.3451,0,-2.2966,-2.3015,-2.305,-2.3106,-2.3139,-2.3189,-2.3216,-2.3247,-2.3256,-2.3277,-2.3341,-2.3378,-2.343,-2.3449,-2.3457,-2.3524,-2.3517,-2.351,-2.3489,-2.3537,-2.356,-2.3569,-2.3454,-2.3453,-2.3453,-2.3452,0,0,-2.303,-2.3096,-2.3109,-2.3134,-2.3186,-2.3224,-2.3274,-2.3325,-2.3351,-2.3392,-2.3434,-2.3501,-2.3495,-2.3525,-2.3537,-2.357,-2.3622,-2.3559,-2.356,-2.3569,-2.3697,-2.3702,-2.3712,-2.3624,-2.3626,-2.3627,-2.3693,0,-2.3094,-2.3183,-2.3202,-2.3279,-2.3324,-2.333,-2.3374,-2.3411,-2.3432,-2.3473,-2.3497,-2.3544,-2.3532,-2.355,-2.3583,-2.3609,-2.3648,-2.3605,-2.3663,-2.3665,-2.3651,-2.3724,-2.3729,-2.379,-2.3702,-2.3704,-2.3705,0,-2.318,-2.3222,-2.3304,-2.3349,-2.3368,-2.3407,-2.3455,-2.3495,-2.3536,-2.3549,-2.3583,-2.3592,-2.3644,-2.3621,-2.3694,-2.3663,-2.3688,-2.3705,-2.3708,-2.3714,-2.3687,-2.3731,-2.381,-2.3819,-2.3719,-2.3718,-2.3717,0,-2.3218,-2.3295,-2.3354,-2.3375,-2.343,-2.3457,-2.3481,-2.3521,-2.355,-2.3592,-2.3611,-2.3659,-2.3685,-2.3722,-2.3743,-2.3725,-2.3814,-2.3793,-2.3826,-2.3825,-2.3844,-2.3842,-2.3927,-2.3861,-2.3861,-2.386,-2.386,0,-2.3287,-2.3336,-2.3371,-2.3407,-2.3463,-2.3484,-2.3538,-2.3562,-2.3597,-2.3638,-2.3647,-2.3685,-2.3711,-2.3753,-2.377,-2.3827,-2.3839,-2.3851,-2.3855,-2.385,-2.3848,-2.3866,-2.3862,-2.3863,-2.3862,-2.3862,-2.3861,0,-2.3338,-2.3364,-2.3428,-2.3474,-2.3487,-2.3526,-2.3565,-2.3601,-2.3622,-2.3673,-2.3687,-2.3721,-2.377,-2.3795,-2.3857,-2.3868,-2.3932,-2.3934,-2.3918,-2.392,-2.3951,-2.3948,-2.405,-2.4064,-2.3989,-2.3989,-2.399,0,-2.3381,-2.3419,-2.3469,-2.3497,-2.3521,-2.3566,-2.3596,-2.3618,-2.3648,-2.3698,-2.3727,-2.3777,-2.3818,-2.3897,-2.3927,-2.3974,-2.3977,-2.4009,-2.3984,-2.3977,-2.3976,-2.3974,-2.3977,-2.4014,-2.4014,-2.4015,-2.4015,0,-2.3453,-2.3463,-2.3506,-2.3553,-2.3588,-2.3626,-2.3664,-2.3686,-2.3714,-2.3748,-2.3799,-2.383,-2.3893,-2.3942,-2.3992,-2.4016,-2.4021,-2.4023,-2.4033,-2.4028,-2.4018,-2.4023,-2.393,-2.4021,-2.402,-2.402,-2.4019,-2.4019,-2.3501,-2.3535,-2.3575,-2.3622,-2.3653,-2.3687,-2.3722,-2.3748,-2.3791,-2.3843,-2.3854,-2.3907,-2.3947,-2.4014,-2.404,-2.4082,-2.4075,-2.409,-2.4093,-2.4096,-2.4098,-2.4011,-2.4091,-2.4091,-2.4091,-2.4091,-2.4091,0,-2.3573,-2.3599,-2.3642,-2.3694,-2.3731,-2.3731,-2.3773,-2.3804,-2.3851,-2.3887,-2.3927,-2.3985,-2.4033,-2.4067,-2.4115,-2.4142,-2.4145,-2.4154,-2.4152,-2.4158,-2.4101,-2.4088,-2.4151,-2.4151,-2.4151,-2.4151,-2.4151,-2.4151,-2.3615,-2.3672,-2.3687,-2.376,-2.3786,-2.3838,-2.3861,-2.3893,-2.3923,-2.3987,-2.4026,-2.4048,-2.4084,-2.4135,-2.4178,-2.4187,-2.4204,-2.4213,-2.4221,-2.4168,-2.4162,-2.4156,-2.4143,-2.4217,-2.4217,-2.4274,-2.4275,-2.4275]},{"header":{"parameterUnit":"m.s-1","parameterCategory":1,"la1":30.2991,"la2":30.254,"lo1":-89.0895,"lo2":-89.0444,"dy":0.0017,"dx":0.0017,"nx":28,"ny":28,"refTime":"2024-05-29T09:00:00:Z","depth":0,"parameterNumber":3,"parameterNumberName":"V-component_of_WINDS"},"data":[0,0,0,0,0,0,0,0,0,0,0,0,0,0,0,0,0,0,0,0,0,0,0,0,0,0,0,0,0,0,0,0,0,0,0,0,0,0,0,0,0,0,0,0,0,0,0,0,0,0,0,0,0,0,0,0,0,0,4.2282,4.2282,0,4.2273,4.2273,4.2273,4.2172,4.2169,4.2167,4.2164,4.2156,4.2158,4.216,0,0,0,0,0,0,0,0,0,0,0,0,0,4.2212,4.2214,4.2282,4.2282,4.2282,4.2273,4.2273,4.2273,4.2172,4.2169,4.2166,4.2163,4.2155,4.2158,4.216,0,0,0,0,0,0,0,0,0,0,0,0,0,4.2227,4.2214,4.2282,4.2231,4.2226,4.2273,4.2273,4.2273,4.2173,4.2169,4.2165,4.2162,4.2154,4.2157,4.2161,4.2257,0,0,4.217,4.2172,0,0,0,0,0,0,0,0,4.2226,4.2229,4.2238,4.2234,4.2229,4.222,4.2245,4.2268,4.2174,4.2193,4.2164,4.216,4.218,4.2181,4.2188,4.2256,4.2256,4.2171,4.2173,4.2174,4.2175,0,0,0,0,0,0,0,4.2225,4.2229,4.2279,4.2239,4.2233,4.2208,4.2206,4.2249,4.2208,4.2191,4.2184,4.2184,4.2177,4.2185,4.2187,4.2256,4.2171,4.2173,4.2175,4.2177,4.2401,4.2404,0,0,0,0,0,0,4.2231,4.2229,4.2279,4.2278,4.2218,4.2212,4.221,4.2227,4.2207,4.2201,4.2187,4.2179,4.2181,4.2183,4.2186,4.2295,4.2174,4.2177,4.2179,4.2397,4.2401,4.2406,0,0,0,0,0,0,4.223,4.2237,4.2279,4.2252,4.2255,4.2217,4.2237,4.2228,4.2236,4.2204,4.2197,4.2203,4.2178,4.2182,4.2239,4.2293,4.2178,4.2181,4.2392,4.2398,4.2404,4.2516,0,0,0,0,0,0,4.2229,4.2237,4.2273,4.2253,4.2257,4.2333,4.2241,4.2231,4.2242,4.2231,4.2217,4.2211,4.2176,4.2235,4.2243,4.2296,4.2184,4.2387,4.2395,4.2402,4.2507,4.2525,4.254,0,0,0,0,0,4.2226,4.2306,4.2276,4.2282,4.2302,4.2336,4.2338,4.2296,4.2247,4.2282,4.2262,4.2211,4.2287,4.2242,4.2249,4.2305,4.2383,4.2392,4.2401,4.25,4.2521,4.254,0,0,0,0,0,0,4.2334,4.2302,4.2268,4.2344,4.2343,4.2319,4.2363,4.2321,4.2334,4.2324,4.2271,4.2269,4.2334,4.2325,4.2276,4.2396,4.2326,4.2337,4.2398,4.2419,4.2435,4.2435,4.2187,0,0,0,0,0,4.2366,4.2397,4.2368,4.2437,4.2439,4.2401,4.2415,4.2382,4.238,4.2379,4.2363,4.2363,4.2386,4.2402,4.2422,4.2506,4.25,4.2548,4.2564,4.2578,4.2588,4.2629,4.2649,4.2435,4.2435,4.2435,0,0,4.2433,4.242,4.2443,4.2458,4.2454,4.2486,4.2402,4.244,4.2463,4.2385,4.2437,4.2426,4.2422,4.2493,4.2523,4.2487,4.2646,4.259,4.2601,4.2603,4.2641,4.2661,4.2679,4.2442,4.244,4.244,0,0,4.2572,4.2566,4.2621,4.2619,4.2613,4.2588,4.2601,4.2583,4.2572,4.2624,4.2565,4.2593,4.2635,4.2634,4.2639,4.2776,4.273,4.2785,4.287,4.2912,4.2928,4.2943,4.299,4.3008,4.2795,4.2795,4.2795,0,4.2656,4.2702,4.2656,4.2697,4.2705,4.2635,4.269,4.269,4.2692,4.2699,4.266,4.2709,4.2702,4.277,4.2804,4.2811,4.2824,4.2785,4.293,4.2944,4.2957,4.3001,4.3019,4.2801,4.2801,4.28,4.2799,0,4.2804,4.2838,4.2883,4.2885,4.2899,4.2948,4.2908,4.2927,4.2893,4.2872,4.2925,4.2914,4.293,4.2944,4.2912,4.3008,4.2985,4.2939,4.2868,4.2984,4.3025,4.3042,4.2811,4.2808,4.2806,4.2805,0,0,4.3009,4.2984,4.3002,4.3001,4.299,4.3014,4.306,4.3074,4.309,4.3094,4.313,4.3167,4.3123,4.3129,4.3096,4.3133,4.324,4.3081,4.308,4.3109,4.3342,4.3375,4.3396,4.321,4.3213,4.3215,4.3341,0,4.314,4.3215,4.3174,4.3254,4.3283,4.3217,4.3256,4.3253,4.3235,4.3257,4.3236,4.3262,4.3204,4.3207,4.324,4.322,4.3285,4.321,4.3241,4.3243,4.3241,4.3417,4.3453,4.3572,4.3357,4.336,4.3362,0,4.3303,4.3312,4.3395,4.3376,4.3387,4.3423,4.3432,4.3454,4.3449,4.3433,4.344,4.3398,4.344,4.3372,4.3429,4.3379,4.3389,4.3381,4.3385,4.3384,4.3308,4.3419,4.361,4.3627,4.3387,4.3385,4.3383,0,4.3441,4.3475,4.3528,4.3529,4.351,4.3536,4.3529,4.3521,4.3531,4.354,4.3546,4.356,4.3567,4.3579,4.3542,4.3496,4.3604,4.3533,4.359,4.3591,4.3614,4.3613,4.3807,4.3625,4.3625,4.3625,4.3624,0,4.359,4.3643,4.3589,4.3621,4.3678,4.3631,4.3688,4.3674,4.3667,4.3696,4.3641,4.3669,4.3619,4.3642,4.3614,4.3664,4.3669,4.3656,4.3647,4.366,4.3661,4.3664,4.3654,4.363,4.3629,4.3628,4.3627,0,4.3753,4.3719,4.3772,4.3749,4.3744,4.3787,4.3767,4.3796,4.3773,4.381,4.3816,4.3781,4.3805,4.377,4.3791,4.3771,4.384,4.382,4.3841,4.3835,4.3894,4.3888,4.4095,4.4119,4.3924,4.3926,4.3928,0,4.3849,4.3888,4.3868,4.3883,4.3879,4.3903,4.3914,4.3869,4.3882,4.3879,4.3908,4.3927,4.394,4.3982,4.3958,4.3973,4.3952,4.4024,4.3954,4.3964,4.395,4.3947,4.395,4.4037,4.4039,4.4041,4.4043,0,4.4023,4.4004,4.4021,4.4031,4.4045,4.4051,4.4054,4.4069,4.4022,4.404,4.4063,4.4073,4.4093,4.4112,4.4122,4.4114,4.4071,4.4065,4.4079,4.4091,4.41,4.4094,4.3878,4.406,4.4059,4.4057,4.4056,4.4056,4.4154,4.4184,4.4174,4.4194,4.4191,4.4195,4.422,4.42,4.4219,4.4231,4.4204,4.4233,4.4227,4.4234,4.4232,4.4255,4.4223,4.4244,4.4249,4.4254,4.4262,4.4099,4.4257,4.4256,4.4255,4.4255,4.4255,0,4.4322,4.4313,4.4332,4.4336,4.4351,4.4309,4.4309,4.4325,4.4351,4.4349,4.4362,4.4388,4.4407,4.4385,4.4399,4.4421,4.4402,4.4426,4.4423,4.4422,4.429,4.4276,4.4442,4.4442,4.4442,4.4442,4.4442,4.4442,4.4412,4.446,4.444,4.4486,4.4476,4.4503,4.4507,4.451,4.4507,4.4538,4.4553,4.4538,4.4527,4.454,4.4555,4.4548,4.4555,4.4587,4.4573,4.445,4.4431,4.4414,4.44,4.4589,4.459,4.4702,4.4703,4.4704]}]]